Location: New Town
(33.2710°N, 90.7534°W)
Time: 12:27:23
(UTC+00:00)

Explorer 11/Cluster Stage 4 - Pass Details

Date: 20 May 2021
Orbit: 467 x 1257 km, 28.8° (Epoch: 14 June)

Event Time Altitude Azimuth Distance (km) Brightness Sun altitude
Rises 20:52:26 0° 202° (SSW) 3,111 9.9 49.6°
Reaches altitude 10° 20:55:52 10° 177° (S) 2,365 9.2 48.9°
Maximum altitude 20:58:48 14° 146° (SE) 2,218 8.9 48.3°
Drops below altitude 10° 21:02:01 10° 116° (ESE) 2,665 9.1 47.6°
Sets 21:06:19 0° 94° (E) 3,803 9.7 46.7°
